Cairns, Queensland

1:15 PM AEST on February 11, 2016 (GMT +1000)
Cairns International

Weather History for YBCS - January, 2014

Change the Weather History Date:

Tuesday, January 7, 2014

  Actual Average Record
Temperature  
Mean Temperature 82 °F -  
Max Temperature 92 °F 89 °F - ()
Min Temperature 73 °F 74 °F - ()
Cooling Degree Days 18    
Growing Degree Days 32 (Base 50)    
Moisture  
Dew Point 70 °F    
Average Humidity 64    
Maximum Humidity 94    
Minimum Humidity 30    
Precipitation  
Precipitation 0.00 in 0.53 in - ()
Sea Level Pressure  
Sea Level Pressure 29.74 in    
Wind  
Wind Speed 7 mph ()    
Max Wind Speed 17 mph    
Max Gust Speed -    
Visibility 7.2 miles    
Events      
T = Trace of Precipitation, MM = Missing Value Source: Averaged Metar Reports

Daily Weather History Graph

Daily Weather History Graph

Search for Another Location

Airport or City:

Trip Planner

Search our weather history database for the weather conditions in past years. The results will help you decide how hot, cold, wet, or windy it might be!

Date:

Astronomy

Jan. 07, 2014 Rise Set
Actual Time 5:50 AM AEST 6:55 PM AEST
Civil Twilight 5:26 AM AEST 7:19 PM AEST
Nautical Twilight 4:58 AM AEST 7:47 PM AEST
Astronomical Twilight 4:29 AM AEST 8:16 PM AEST
Moon 11:23 AM AEST (1/7) 11:34 PM AEST (1/7)
Length of Visible Light 13h 52m
Length of Day
13h 05m
Waxing Crescent, 38% of the Moon is Illuminated
Jan 7
Waxing Crescent
Jan 8
First Quarter
Jan 16
Full
Jan 24
Last Quarter
Jan 31
New

Hourly Weather History & Observations

Time (AEST) Temp. Heat Index Dew Point Humidity Pressure Visibility Wind Dir Wind Speed Gust Speed Precip Events Conditions
12:00 AM 80 °F - 72 °F 70% 29.80 in - SSW 5.8 mph - -  
12:00 AM 80.6 °F 84.6 °F 71.6 °F 74% 29.80 in 6.2 mi SSW 5.8 mph - N/A   Scattered Clouds
12:30 AM 80.6 °F 84.6 °F 71.6 °F 74% 29.77 in 6.2 mi South 6.9 mph - N/A   Scattered Clouds
1:00 AM 78 °F - 72 °F 76% 29.78 in - SSE 5.8 mph - -  
1:00 AM 78.8 °F - 71.6 °F 78% 29.77 in 6.2 mi SSE 5.8 mph - N/A   Scattered Clouds
1:30 AM 77.0 °F - 71.6 °F 83% 29.74 in 6.2 mi SSE 5.8 mph - N/A   Mostly Cloudy
2:00 AM 77.0 °F - 71.6 °F 83% 29.74 in 6.2 mi Calm Calm - N/A   Mostly Cloudy
2:30 AM 77.0 °F - 71.6 °F 83% 29.74 in 6.2 mi Calm Calm - N/A   Mostly Cloudy
3:00 AM 78 °F - 71 °F 74% 29.74 in - South 2.3 mph - -  
3:00 AM 77.0 °F - 71.6 °F 83% 29.74 in 6.2 mi South 2.3 mph - N/A   Mostly Cloudy
3:30 AM 77.0 °F - 71.6 °F 83% 29.71 in 6.2 mi SSE 4.6 mph - N/A   Mostly Cloudy
4:00 AM 77 °F - 71 °F 76% 29.73 in - SSE 9.2 mph - -  
4:00 AM 77.0 °F - 71.6 °F 83% 29.71 in 6.2 mi SSE 9.2 mph - N/A   Scattered Clouds
4:30 AM 75.2 °F - 71.6 °F 89% 29.71 in 6.2 mi SE 10.4 mph - N/A   Scattered Clouds
5:00 AM 77.0 °F - 69.8 °F 78% 29.71 in 6.2 mi South 3.5 mph - N/A   Scattered Clouds
5:30 AM 75.2 °F - 69.8 °F 83% 29.74 in 6.2 mi SSE 5.8 mph - N/A   Scattered Clouds
6:00 AM 74 °F - 71 °F 87% 29.75 in 19 mi Calm Calm - -   Partly Cloudy
6:00 AM 73.4 °F - 71.6 °F 94% 29.74 in 6.2 mi Calm Calm - N/A   Scattered Clouds
6:30 AM 73.4 °F - 71.6 °F 94% 29.74 in 6.2 mi Calm Calm - N/A   Scattered Clouds
7:00 AM 79 °F - 71 °F 69% 29.76 in - SE 8.1 mph - -  
7:00 AM 78.8 °F - 71.6 °F 78% 29.74 in 6.2 mi SE 8.1 mph - N/A   Scattered Clouds
7:30 AM 80.6 °F 83.9 °F 69.8 °F 70% 29.74 in 6.2 mi SE 9.2 mph - N/A   Scattered Clouds
8:00 AM 82.4 °F 86.3 °F 69.8 °F 66% 29.74 in 6.2 mi SSE 9.2 mph - N/A   Scattered Clouds
8:30 AM 82.4 °F 87.2 °F 71.6 °F 70% 29.74 in 6.2 mi SE 10.4 mph - N/A   Scattered Clouds
9:00 AM 86 °F - 70 °F 50% 29.76 in 19 mi SSE 8.1 mph - -   Partly Cloudy
9:00 AM 86.0 °F 90.4 °F 69.8 °F 58% 29.74 in 6.2 mi SSE 8.1 mph - N/A   Scattered Clouds
9:30 AM 87.8 °F 93.8 °F 71.6 °F 58% 29.74 in 6.2 mi SE 9.2 mph - N/A   Scattered Clouds
10:00 AM 87 °F - 71 °F 50% 29.77 in - SE 11.5 mph - -  
10:00 AM 87.8 °F 93.8 °F 71.6 °F 58% 29.74 in 6.2 mi SE 11.5 mph - N/A   Scattered Clouds
10:30 AM 87.8 °F 92.6 °F 69.8 °F 55% 29.74 in 6.2 mi East 10.4 mph - N/A   Scattered Clouds
11:00 AM 87.8 °F 90.4 °F 66.2 °F 49% 29.74 in 6.2 mi SE 15.0 mph - N/A   Scattered Clouds
11:30 AM 89.6 °F 93.4 °F 68.0 °F 49% 29.74 in 6.2 mi ESE 15.0 mph - N/A   Partly Cloudy
12:00 PM 91 °F - 67 °F 36% 29.76 in 19 mi SE 16.1 mph - -   Partly Cloudy
12:00 PM 91.4 °F 95.4 °F 68.0 °F 46% 29.74 in 6.2 mi SE 16.1 mph - N/A   Partly Cloudy
12:30 PM 89.6 °F 90.1 °F 62.6 °F 40% 29.74 in 6.2 mi SE 13.8 mph - N/A   Partly Cloudy
1:00 PM 92 °F - 65 °F 30% 29.76 in - ESE 13.8 mph - -  
1:00 PM 91.4 °F 93.2 °F 64.4 °F 41% 29.74 in 6.2 mi ESE 13.8 mph - N/A   Partly Cloudy
1:30 PM 89.6 °F 92.2 °F 66.2 °F 46% 29.74 in 6.2 mi East 11.5 mph - N/A   Partly Cloudy
2:00 PM 89.6 °F 94.7 °F 69.8 °F 52% 29.71 in 6.2 mi ENE 16.1 mph - N/A   Partly Cloudy
2:30 PM 89.6 °F 94.7 °F 69.8 °F 52% 29.71 in 6.2 mi East 15.0 mph - N/A   Partly Cloudy
3:00 PM 91 °F - 67 °F 35% 29.71 in 19 mi East 15.0 mph - -   Partly Cloudy
3:00 PM 91.4 °F 94.0 °F 66.2 °F 43% 29.71 in 6.2 mi East 15.0 mph - N/A   Partly Cloudy
3:30 PM 89.6 °F 92.2 °F 66.2 °F 46% 29.68 in 6.2 mi ESE 12.7 mph - N/A   Partly Cloudy
4:00 PM 89 °F - 67 °F 39% 29.71 in - ESE 13.8 mph - -  
4:00 PM 89.6 °F 93.4 °F 68.0 °F 49% 29.68 in 6.2 mi ESE 13.8 mph - N/A   Partly Cloudy
4:30 PM 89.6 °F 93.4 °F 68.0 °F 49% 29.71 in 6.2 mi East 11.5 mph - N/A   Partly Cloudy
5:00 PM 87.8 °F 91.4 °F 68.0 °F 52% 29.71 in 6.2 mi East 13.8 mph - N/A   Partly Cloudy
5:30 PM 87.8 °F 91.4 °F 68.0 °F 52% 29.71 in 6.2 mi ESE 12.7 mph - N/A   Partly Cloudy
6:00 PM 85 °F - 69 °F 51% 29.74 in - SE 13.8 mph - -  
6:00 PM 86.0 °F 90.4 °F 69.8 °F 58% 29.74 in 6.2 mi SE 13.8 mph - N/A   Partly Cloudy
6:30 PM 84.2 °F 88.4 °F 69.8 °F 62% 29.74 in 6.2 mi SE 17.3 mph - N/A   Scattered Clouds
7:00 PM 83 °F - 70 °F 56% 29.76 in - SSE 15.0 mph - -  
7:00 PM 82.4 °F 86.3 °F 69.8 °F 66% 29.74 in 6.2 mi SSE 15.0 mph - N/A   Scattered Clouds
7:30 PM 82.4 °F 86.3 °F 69.8 °F 66% 29.74 in 6.2 mi SE 12.7 mph - N/A   Partly Cloudy
8:00 PM 80.6 °F 83.9 °F 69.8 °F 70% 29.77 in 6.2 mi South 6.9 mph - N/A   Partly Cloudy
8:30 PM 80.6 °F 83.9 °F 69.8 °F 70% 29.77 in 6.2 mi South 6.9 mph - N/A   Partly Cloudy
9:00 PM 80 °F - 70 °F 64% 29.79 in - South 6.9 mph - -  
9:00 PM 80.6 °F 83.9 °F 69.8 °F 70% 29.77 in 6.2 mi South 6.9 mph - N/A   Partly Cloudy
9:30 PM 80.6 °F 83.9 °F 69.8 °F 70% 29.77 in 6.2 mi South 5.8 mph - N/A   Partly Cloudy
10:00 PM 80 °F - 69 °F 62% 29.79 in - South 5.8 mph - -  
10:00 PM 80.6 °F 83.9 °F 69.8 °F 70% 29.77 in 6.2 mi South 5.8 mph - N/A   Partly Cloudy
10:30 PM 80.6 °F 83.9 °F 69.8 °F 70% 29.77 in 6.2 mi South 8.1 mph - N/A   Partly Cloudy
11:00 PM 80.6 °F 83.9 °F 69.8 °F 70% 29.77 in 6.2 mi SSE 8.1 mph - N/A   Partly Cloudy
11:30 PM 80.6 °F 83.9 °F 69.8 °F 70% 29.77 in 6.2 mi South 6.9 mph - N/A   Partly Cloudy